CW0451 Weather Reports


Display with metric or nautical units.
time (UTC)temp
F
wind
direction
speed
MPH
gust
MPH
rain 1hr
in
rain 24hr
in
rain mn
in
humidity
%
barometer
mb
20260506082103 55 209 8.0 14.0 0.00 0.00 0.00 90 1011.4
20260506081102 56 204 8.0 14.0 0.00 0.00 0.00 90 1011.4
20260506080123 56 208 9.0 20.0 0.00 0.00 0.00 90 1011.3
20260506073103 56 203 7.0 15.0 0.00 0.00 0.00 90 1011.3
20260506072102 55 195 7.0 17.0 0.00 0.00 0.00 90 1011.3
20260506071103 56 198 10.0 18.0 0.00 0.00 0.00 90 1011.2
20260506070103 56 195 8.0 18.0 0.00 0.00 0.00 89 1011.2
20260506062103 56 218 10.0 19.0 0.00 0.00 0.00 88 1011.1
20260506061123 56 211 9.0 18.0 0.00 0.00 0.00 88 1011.1
20260506051124 57 212 8.0 18.0 0.00 0.00 0.00 87 1011.4
20260506045103 56 233 7.0 18.0 0.00 0.00 0.00 87 1011.8
20260506044104 56 220 8.0 17.0 0.00 0.00 0.00 87 1011.8
20260506043103 56 208 7.0 19.0 0.00 0.00 0.00 87 1011.8
20260506042102 56 212 7.0 18.0 0.00 0.00 0.00 87 1011.8
20260506041103 56 205 8.0 16.0 0.00 0.00 0.00 86 1011.6
20260506035103 56 198 8.0 18.0 0.00 0.00 0.00 86 1011.6
20260506034103 56 210 8.0 21.0 0.00 0.00 0.00 85 1011.6
20260506033102 56 209 10.0 22.0 0.00 0.00 0.00 85 1011.6
20260506032103 56 216 9.0 17.0 0.00 0.00 0.00 84 1011.4
20260506031103 56 206 10.0 20.0 0.00 0.00 0.00 83 1011.5
20260506025103 56 220 8.0 20.0 0.00 0.00 0.00 82 1011.4
20260506024123 57 208 10.0 21.0 0.00 0.00 0.00 82 1011.4
20260506023103 57 217 8.0 19.0 0.00 0.00 0.00 81 1011.3
20260506022102 56 208 7.0 21.0 0.00 0.00 0.00 81 1011.4
20260506021103 56 211 8.0 18.0 0.00 0.00 0.00 81 1011.3
20260506015103 56 203 9.0 22.0 0.00 0.00 0.00 82 1011.3
20260506014103 56 201 9.0 21.0 0.00 0.00 0.00 81 1011.3
20260506013102 57 209 9.0 18.0 0.00 0.00 0.00 81 1011.2
20260506012124 57 205 9.0 17.0 0.00 0.00 0.00 80 1011.2
20260506011102 57 220 10.0 20.0 0.00 0.00 0.00 81 1011.0
20260506005102 57 213 8.0 17.0 0.00 0.00 0.00 81 1010.9
20260506004102 56 213 8.0 13.0 0.00 0.00 0.00 82 1010.8
20260506003103 56 201 6.0 15.0 0.00 0.00 0.00 82 1010.7
20260506002102 56 208 9.0 16.0 0.00 0.00 0.00 82 1010.6
20260506001103 56 209 12.0 18.0 0.00 0.00 0.00 82 1010.3
20260505235144 57 204 10.0 19.0 0.00 0.00 0.00 81 1009.8
20260505234103 57 214 10.0 18.0 0.00 0.00 0.00 81 1009.6
20260505233102 57 212 10.0 23.0 0.00 0.00 0.00 80 1009.5
20260505232103 58 200 11.0 26.0 0.00 0.00 0.00 80 1009.4
20260505231103 58 208 11.0 25.0 0.00 0.00 0.00 79 1009.2
20260505225103 58 203 8.0 20.0 0.00 0.00 0.00 79 1009.3
20260505224145 58 212 10.0 23.0 0.00 0.00 0.00 79 1009.4
20260505223103 58 204 13.0 25.0 0.00 0.00 0.00 79 1009.1
20260505222124 59 201 8.0 23.0 0.00 0.00 0.00 79 1009.2
20260505221103 59 204 13.0 27.0 0.00 0.00 0.00 78 1009.2
20260505215123 61 207 11.0 28.0 0.00 0.00 0.00 76 1008.9
20260505214103 62 203 18.0 26.0 0.00 0.00 0.00 73 1008.8
20260505213103 63 206 9.0 19.0 0.00 0.00 0.00 73 1008.9
20260505212102 62 220 10.0 24.0 0.00 0.00 0.00 74 1008.8
20260505211103 62 213 14.0 26.0 0.00 0.00 0.00 73 1008.7
20260505205104 63 220 12.0 23.0 0.00 0.00 0.00 72 1008.7
20260505204102 63 210 9.0 28.0 0.00 0.00 0.00 73 1008.9
20260505203124 64 208 12.0 25.0 0.00 0.00 0.00 72 1008.8
20260505202103 64 194 10.0 25.0 0.00 0.00 0.00 72 1008.7
20260505201102 64 205 14.0 30.0 0.00 0.00 0.00 71 1008.7
20260505195102 65 214 14.0 25.0 0.00 0.00 0.00 70 1008.8
20260505194103 65 202 11.0 28.0 0.00 0.00 0.00 70 1008.9
20260505193102 66 208 18.0 28.0 0.00 0.00 0.00 69 1008.9
20260505192102 66 201 15.0 27.0 0.00 0.00 0.00 69 1009.1
20260505191103 66 202 15.0 30.0 0.00 0.00 0.00 69 1009.0
20260505185103 68 204 10.0 22.0 0.00 0.00 0.00 67 1009.1
20260505184102 68 206 8.0 25.0 0.00 0.00 0.00 68 1009.1
20260505183103 69 215 10.0 21.0 0.00 0.00 0.00 64 1009.1
20260505182103 69 195 9.0 19.0 0.00 0.00 0.00 66 1009.2
20260505181102 68 194 14.0 30.0 0.00 0.00 0.00 65 1009.3
20260505180103 68 199 16.0 25.0 0.00 0.00 0.00 65 1009.4
20260505175103 68 201 10.0 28.0 0.00 0.00 0.00 67 1009.6
20260505174103 69 211 18.0 29.0 0.00 0.00 0.00 64 1009.9
20260505173103 69 189 12.0 27.0 0.00 0.00 0.00 67 1009.9
20260505172103 68 194 17.0 27.0 0.00 0.00 0.00 66 1009.7
20260505171103 68 208 13.0 21.0 0.00 0.00 0.00 67 1009.8
20260505165103 67 192 13.0 28.0 0.00 0.00 0.00 69 1010.1
20260505164102 67 191 17.0 25.0 0.00 0.00 0.00 68 1010.3
20260505163103 66 210 14.0 27.0 0.00 0.00 0.00 68 1010.4
20260505162102 67 218 12.0 22.0 0.00 0.00 0.00 68 1010.5
20260505161103 68 192 12.0 22.0 0.00 0.00 0.00 67 1010.3
20260505153103 69 200 11.0 21.0 0.00 0.00 0.00 65 1010.2
20260505152102 70 189 13.0 20.0 0.00 0.00 0.00 66 1010.2
20260505151103 69 210 8.0 16.0 0.00 0.00 0.00 70 1010.3
20260505124102 60 192 9.0 18.0 0.00 0.00 0.00 81 1010.8
20260505123103 59 200 8.0 17.0 0.00 0.00 0.00 81 1010.9
20260505122102 59 213 10.0 15.0 0.00 0.00 0.00 81 1011.0
20260505121103 58 198 10.0 15.0 0.00 0.00 0.00 81 1010.7
20260505115103 57 190 8.0 15.0 0.00 0.00 0.00 84 1010.5
20260505114102 56 202 5.0 12.0 0.00 0.00 0.00 84 1010.6
20260505113102 56 202 8.0 17.0 0.00 0.00 0.00 85 1010.6
20260505112102 55 197 10.0 15.0 0.00 0.00 0.00 86 1010.6
20260505111103 54 200 10.0 14.0 0.00 0.00 0.00 86 1010.6
20260505102103 51 204 8.0 14.0 0.00 0.00 0.00 90 1010.5
20260505101124 51 221 5.0 12.0 0.00 0.00 0.00 90 1010.2
20260505095102 50 211 5.0 10.0 0.00 0.00 0.00 91 1010.2
20260505094103 50 204 5.0 10.0 0.00 0.00 0.00 91 1010.4
20260505093102 50 196 4.0 10.0 0.00 0.00 0.00 91 1010.4
20260505092103 50 184 5.0 8.0 0.00 0.00 0.00 91 1010.4
20260505091102 50 193 4.0 9.0 0.00 0.00 0.00 91 1010.6
20260505085103 50 190 5.0 9.0 0.00 0.00 0.00 91 1010.6
20260505084103 49 194 5.0 9.0 0.00 0.00 0.00 91 1010.6
20260505083103 50 194 4.0 8.0 0.00 0.00 0.00 91 1010.6